Regional Weather Roundup
Issued by NWS

Home | Current Version | Previous Version | Text Only | Print | Product List | Glossary On
Versions: 1 2 3 4 5 6 7 8 9 10 11 12 13 14 15 16 17 18 19 20 21 22 23 24 25 26 27
000
ASPQ40 PGUM 280912
RWRPQ
WEATHER ROUNDUP FOR THE MARIANAS AND MICRONESIA
NATIONAL WEATHER SERVICE TIYAN GU
700 PM CHST TUE MAR 28 2017

GUZ001>004-281000-
MARIANA ISLANDS-

CITY           SKY/WX    TMP DP  RH WIND       PRES   REMARKS
GUAM AIRPORT   PTCLDY    81  73  78 NE10      29.92R
ANDERSEN AFB   MOCLDY    81  73  78 NE15      29.94R
ROTA AIRPORT   PTCLDY    79  73  83 NE15      29.92R
TINIAN AP      MOCLDY    79  75  89 NE18      29.92R
SAIPAN AP      CLOUDY    81  73  78 NE17G24   29.94R

$$

PMZ161-281000-
REPUBLIC OF PALAU-

CITY           SKY/WX    TMP DP  RH WIND       PRES   REMARKS
KOROR AP       CLOUDY    81  75  83 NE7       29.84R
KOROR WSO      CLOUDY    81  77  89 N3        29.86R

$$

PMZ171>174-281000-
FEDERATED STATES OF MICRONESIA-

CITY           SKY/WX    TMP DP  RH WIND       PRES   REMARKS
YAP AIRPORT    CLOUDY    82  75  78 NE12      29.83R
CHUUK AP       LGT RAIN  77  75  94 N8        29.83R
POHNPEI AP     NOT AVBL
POHNPEI WSO    CLOUDY    81  77  89 E6        29.84R
KOSRAE AP      NOT AVBL

$$

PMZ181-281000-
REPUBLIC OF THE MARSHALL ISLANDS-

CITY           SKY/WX    TMP DP  RH WIND       PRES   REMARKS
KWAJALEIN AP   CLEAR     82  72  69 E17       29.86R
MAJURO AP      NOT AVBL
MAJURO WSO     PTCLDY    82  72  69 E12       29.83R

$$





USA.gov is the U.S. government's official web portal to all federal, state and local government web resources and services.